Theta_e
321 319 319 328 331 330 336 336 328 327 333 335 329 330 336 334 334 342 343 341 345 347 349 356 357 353 354 356 357 361 362 359 356 355 355 353 350 345 343 343 345 347 348 348 349 349 349 350 350 351 352 352 352 353 352 352 353 352 351 351 350 350 349
321 319 320 329 331 330 334 331 329 331 333 333 330 331 336 334 332 338 340 339 341 342 347 357 360 357 357 357 356 358 359 359 358 357 356 355 352 348 344 343 345 347 347 348 348 348 349 349 349 350 352 352 352 352 352 352 352 352 351 351 350 350 350
320 319 322 327 328 329 331 332 332 330 326 326 328 332 334 332 333 338 341 340 338 338 345 355 359 358 359 358 356 357 358 358 358 356 356 356 354 352 348 344 345 347 347 348 349 348 348 350 350 350 351 352 352 352 352 352 353 351 351 351 351 350 349
318 320 321 321 324 327 331 335 334 328 326 325 327 329 329 329 333 337 340 340 339 339 347 355 358 359 359 357 357 357 356 357 356 356 356 356 356 355 351 347 346 346 347 347 347 348 349 349 349 349 350 351 352 352 352 352 353 352 352 351 350 349 349
317 319 321 320 325 328 327 330 328 324 323 325 327 328 328 328 332 334 335 334 335 342 352 357 357 358 358 356 357 357 355 356 356 356 356 356 356 356 355 351 348 348 349 348 347 348 349 349 349 349 349 350 351 352 352 352 352 352 352 351 350 349 349
315 317 319 320 325 328 328 330 329 324 322 324 325 326 330 330 329 331 331 328 334 344 350 353 356 356 356 356 355 356 356 355 355 357 357 357 356 356 355 352 350 352 352 351 349 348 348 349 349 349 349 350 352 352 352 352 352 352 351 351 350 349 349
318 319 318 317 318 322 327 328 329 329 326 324 322 322 329 332 330 332 330 328 337 347 348 350 355 354 354 355 355 355 356 355 354 355 357 358 357 356 356 354 354 356 355 354 353 351 350 350 350 349 349 350 351 351 350 351 352 351 350 350 350 349 348
319 318 318 318 315 320 326 324 325 326 325 325 325 326 331 330 329 332 329 327 338 347 349 351 353 353 353 354 355 355 355 355 354 353 355 357 357 358 358 357 357 357 355 355 355 354 353 352 351 350 349 349 350 350 349 350 351 350 349 349 350 349 348
316 316 316 317 316 319 322 321 323 324 328 330 330 334 335 330 331 333 325 325 337 346 350 351 350 352 353 352 353 353 353 354 353 353 354 356 356 357 358 357 356 355 355 356 356 356 355 354 352 349 347 348 349 348 349 350 350 351 350 350 350 350 350
315 316 316 315 317 319 317 319 324 327 331 331 330 332 329 326 334 336 325 328 342 350 351 351 351 352 352 351 350 350 351 351 351 352 354 354 354 356 356 355 355 355 355 355 355 355 355 355 354 351 349 349 351 350 349 350 351 352 352 352 352 352 352
315 317 318 318 319 319 315 316 323 328 332 335 333 330 325 327 334 335 332 339 347 350 352 353 353 352 350 350 349 349 349 348 348 350 351 350 350 352 353 353 354 355 354 355 355 353 354 355 354 353 353 353 353 351 350 351 353 355 353 353 354 355 355
316 318 318 316 317 317 315 317 322 327 333 336 331 325 327 334 330 327 339 349 346 348 351 352 352 351 350 349 348 348 347 346 346 346 346 347 348 349 350 350 352 354 353 353 354 354 354 353 353 353 353 353 353 352 352 353 354 354 353 353 353 354 355
316 318 315 314 316 318 319 324 327 329 331 332 331 329 335 339 329 326 344 351 347 348 350 349 351 350 348 348 348 347 345 345 345 345 346 347 347 347 347 348 350 352 352 353 353 353 353 352 352 352 352 352 352 352 352 352 353 353 353 352 352 352 353
316 317 317 316 317 317 318 322 325 329 333 335 336 337 340 342 338 338 347 351 350 349 348 347 349 347 346 347 346 345 344 344 344 345 346 347 345 345 345 345 346 347 349 351 351 351 351 351 351 352 350 350 350 349 349 349 350 350 352 352 351 351 351
316 317 319 317 316 317 318 319 321 325 331 338 341 341 342 344 344 346 348 350 350 348 345 346 345 344 345 346 346 346 344 343 343 345 346 345 343 343 343 344 344 345 347 348 348 348 348 348 348 348 347 347 347 347 347 347 348 348 349 350 349 348 349
315 316 318 318 317 317 317 319 322 321 324 333 339 340 342 342 345 348 346 345 347 347 344 345 344 344 345 344 345 345 344 343 344 344 345 343 341 342 342 342 343 343 344 343 343 344 344 344 345 344 344 345 344 344 344 345 346 347 347 348 348 347 348
314 316 318 320 319 316 316 319 321 320 322 329 335 339 342 343 346 346 342 342 347 347 344 345 345 344 344 344 343 344 345 344 343 343 343 341 340 341 342 342 341 340 340 340 340 340 339 340 340 340 341 340 339 340 340 341 343 343 344 345 344 345 347
314 319 322 321 317 315 316 318 319 320 320 324 331 338 342 342 342 341 341 345 347 344 343 345 345 344 343 343 342 342 343 344 342 341 340 338 338 339 339 339 338 338 338 336 335 335 334 335 335 336 336 335 335 337 337 337 338 339 340 341 341 342 344
316 319 321 319 316 315 317 317 319 322 322 325 333 340 340 338 338 339 342 345 345 343 343 343 343 343 342 340 340 341 341 340 340 338 337 337 337 337 336 336 336 336 335 334 333 333 332 332 332 332 332 332 333 333 333 333 333 334 335 336 336 337 339
319 317 316 318 319 318 317 317 318 321 322 324 331 338 338 335 335 340 344 344 343 342 341 341 341 341 339 337 338 338 338 338 338 337 336 335 335 336 336 336 335 334 333 333 333 332 330 330 330 329 329 330 330 330 329 329 329 330 331 331 332 332 333
324 319 314 317 319 317 317 319 318 318 320 319 322 331 337 334 333 340 344 343 342 341 340 341 340 338 338 338 336 335 335 335 335 336 335 335 334 334 335 334 333 332 332 332 332 330 329 329 328 327 328 329 329 329 328 328 328 328 329 330 330 329 329
326 322 316 316 316 314 318 320 318 318 319 317 319 327 335 334 333 339 343 342 342 341 340 340 339 338 341 341 337 333 332 332 332 332 333 333 333 332 332 332 331 331 331 331 330 329 329 327 326 326 327 327 328 328 328 328 328 328 329 329 328 327 327
322 321 318 317 316 317 321 322 321 320 318 317 320 325 331 333 334 339 342 341 340 341 339 339 339 340 343 342 337 331 329 330 330 329 330 332 331 331 331 330 330 330 329 329 329 329 328 326 326 326 326 326 326 326 327 327 327 327 328 327 326 325 325
322 321 319 319 319 322 323 323 323 321 318 320 324 325 326 331 334 338 341 341 340 339 338 339 340 341 342 341 335 329 327 327 328 328 329 331 330 330 329 329 329 329 328 327 327 326 325 324 325 325 324 324 324 324 324 325 325 326 326 326 326 325 324
319 319 317 318 320 323 323 323 323 321 320 323 327 325 324 326 330 336 340 340 339 338 338 339 339 339 338 336 330 327 326 326 326 327 328 329 329 329 328 327 327 326 325 324 324 323 322 322 323 322 322 322 322 322 322 323 323 323 324 325 326 326 326
316 318 317 317 319 321 322 322 322 321 321 322 323 323 322 322 325 334 339 338 338 338 336 336 337 335 333 330 327 326 326 325 326 327 327 327 327 327 326 325 325 324 323 322 322 321 321 321 321 321 321 321 321 322 322 321 321 321 321 323 324 325 326
314 316 316 316 319 322 322 323 324 323 323 322 321 322 322 322 326 333 337 337 337 335 333 333 333 332 329 328 327 326 324 324 325 326 327 327 327 326 325 324 323 323 322 321 321 321 320 320 321 321 320 320 321 321 320 319 318 318 319 320 322 323 324
315 316 317 318 321 321 320 322 323 322 321 320 319 320 321 324 328 332 334 335 333 332 331 330 331 330 328 327 326 325 324 325 326 326 326 326 325 324 323 323 322 321 321 320 320 320 319 318 318 319 319 321 321 320 319 317 317 318 318 318 319 320 322
318 320 320 321 322 321 320 320 320 320 319 318 318 318 320 324 327 330 332 331 328 328 329 329 329 329 328 326 325 325 325 325 326 326 325 324 324 323 322 321 321 320 320 320 319 319 318 317 316 316 318 320 320 319 318 317 317 319 320 319 319 320 320
320 321 321 321 321 321 321 320 319 319 318 317 317 318 319 320 322 326 329 328 326 327 328 329 329 329 326 325 324 323 324 325 326 325 323 322 322 322 321 321 320 319 319 319 319 320 319 318 317 316 317 317 318 318 317 316 318 320 321 321 320 320 320
321 323 323 322 321 321 321 321 320 319 319 318 317 317 317 318 320 324 326 325 325 326 326 328 329 328 326 325 325 323 323 324 325 324 323 322 321 321 320 319 318 318 319 320 320 320 319 318 318 317 316 316 316 316 317 317 319 320 320 320 320 320 320
321 323 323 321 320 320 321 321 321 320 320 320 319 318 318 318 320 322 324 324 323 323 324 325 325 325 324 323 323 323 323 323 324 323 322 322 322 321 319 317 316 317 320 320 320 320 319 318 317 316 315 315 315 315 316 317 319 319 318 319 320 320 320
322 323 323 322 322 322 321 321 320 320 321 321 320 319 318 317 318 319 321 322 322 323 325 326 325 326 326 323 322 323 323 322 322 322 322 322 321 320 319 316 315 317 319 320 321 321 319 318 317 316 316 316 316 316 316 317 319 319 319 319 320 321 321
323 324 323 324 325 324 322 321 320 320 321 321 319 319 319 318 318 319 318 320 321 323 324 325 325 328 329 325 321 322 322 320 320 321 321 321 320 319 318 316 316 316 316 317 318 318 317 317 317 317 317 317 317 318 318 318 319 319 320 320 320 321 321
324 323 322 322 324 323 321 320 320 320 320 321 320 320 319 319 319 319 318 318 319 319 320 321 322 324 325 322 320 320 320 319 320 320 320 319 318 317 316 316 317 316 316 316 317 316 316 317 317 317 317 317 317 317 317 318 318 319 320 320 320 320 320
324 322 321 321 322 322 320 320 320 320 321 321 321 321 321 320 320 320 319 319 318 317 317 318 319 320 321 320 319 319 319 319 319 319 319 319 317 315 315 315 316 315 317 319 319 317 317 318 318 317 316 316 316 316 315 316 317 318 318 319 319 318 318
323 322 321 320 321 321 320 320 320 321 321 321 320 321 322 322 322 321 320 320 319 318 318 317 317 318 319 319 319 319 319 319 319 318 319 319 318 316 316 315 314 314 317 319 320 318 318 318 317 316 316 315 314 314 313 314 315 316 317 317 317 317 317
Wind_Speed
8 10 11 12 10 7 5 5 6 3 1 3 1 1 2 1 3 3 3 3 1 1 3 2 2 5 9 12 12 10 9 9 9 9 9 9 8 9 10 9 10 12 14 15 16 16 16 17 18 19 21 23 25 25 26 27 25 26 27 27 26 25 24
5 4 10 11 7 5 6 7 7 5 2 0 0 1 3 2 4 2 3 5 3 1 1 1 4 7 10 13 14 13 11 10 9 8 8 8 7 8 9 9 10 12 14 15 16 16 17 18 19 21 22 23 23 25 25 25 26 26 27 26 26 26 25
3 5 8 7 4 2 1 5 8 5 2 3 2 2 3 4 3 1 2 4 4 4 3 3 7 9 10 13 14 15 15 12 10 10 9 8 7 6 7 7 7 9 13 15 16 16 16 18 17 18 19 19 20 22 23 23 24 25 25 24 24 25 25
5 7 7 7 7 3 1 4 8 3 2 3 3 2 2 4 3 2 2 2 4 4 2 5 9 9 11 14 13 14 15 13 10 10 9 8 7 5 5 6 6 7 10 13 15 16 16 17 17 16 17 18 19 20 21 20 19 20 22 23 25 25 24
4 6 5 7 10 9 5 6 8 4 1 1 2 1 0 1 2 2 2 2 2 1 1 3 7 9 11 13 13 13 13 11 9 7 7 7 6 6 5 5 6 7 8 10 12 13 14 15 15 15 17 18 18 18 19 20 19 19 21 23 25 25 24
5 3 1 4 7 9 9 8 8 7 5 3 5 4 1 0 1 1 1 2 1 3 2 1 5 8 9 11 12 12 11 10 8 6 5 5 5 5 5 5 6 7 8 9 10 11 12 13 14 16 16 16 17 17 18 19 18 19 21 22 23 24 24
2 0 1 2 3 2 4 4 6 8 7 6 7 6 3 2 1 1 0 1 1 2 1 2 5 7 7 9 11 11 11 10 8 7 6 5 4 4 5 5 5 7 7 8 9 10 12 14 16 17 18 17 18 19 21 21 20 21 22 22 21 22 23
1 1 2 2 1 2 3 1 2 6 5 4 3 2 4 5 4 2 2 2 1 2 2 3 6 7 6 7 8 9 10 9 7 8 7 6 6 6 5 5 5 7 8 7 8 9 11 13 16 18 20 20 20 21 22 21 21 21 21 21 20 20 21
3 3 4 4 2 2 2 1 1 2 3 5 4 3 3 5 3 2 4 3 2 3 4 5 7 9 8 7 7 7 8 8 8 8 8 7 7 6 5 5 6 7 8 8 8 9 11 13 16 20 21 21 21 22 21 20 20 19 18 18 18 17 17
5 4 4 3 2 1 0 1 2 2 4 7 5 3 3 5 2 2 3 2 3 4 6 8 9 10 9 7 7 7 7 7 8 7 7 6 6 7 7 6 7 8 8 10 10 10 11 12 14 17 19 19 19 19 19 18 17 15 14 14 13 13 13
1 0 1 1 1 1 1 1 3 2 2 2 3 3 4 4 4 4 3 2 5 8 10 10 11 10 10 9 8 8 7 7 7 6 6 6 5 6 7 6 6 7 8 10 12 12 11 10 10 11 12 13 14 17 17 15 11 10 11 12 10 9 9
4 2 2 1 0 1 2 2 2 2 1 1 4 5 3 6 6 4 3 6 8 11 13 13 12 11 10 9 9 9 8 8 8 7 7 7 7 7 6 6 7 8 9 9 11 12 11 11 11 11 11 11 12 13 12 10 8 8 10 13 13 10 9
3 4 4 3 3 3 4 5 4 2 1 2 3 2 3 6 4 2 7 12 10 10 14 15 13 11 10 10 10 9 9 9 9 9 9 8 8 8 8 6 7 9 9 9 11 12 11 12 14 14 13 11 11 10 10 10 11 9 8 12 14 13 10
4 6 6 6 5 5 8 9 9 7 3 2 2 2 3 3 2 1 9 13 8 7 13 15 13 12 11 10 10 9 10 10 10 10 10 9 8 8 8 7 7 8 9 10 12 11 11 13 14 13 12 11 11 11 10 11 12 10 8 11 11 10 10
4 8 7 6 4 4 8 11 11 10 6 3 3 3 3 3 3 3 8 9 5 6 12 14 13 12 12 11 11 10 10 11 11 10 10 10 9 8 9 9 8 8 8 9 10 10 11 13 15 14 12 11 11 12 11 11 12 10 10 10 8 8 11
3 7 7 5 2 1 5 11 13 12 6 1 1 1 0 1 5 9 8 5 4 8 13 13 12 13 13 12 12 11 10 11 12 11 10 10 10 9 9 10 9 9 10 11 12 13 15 16 16 14 12 11 12 14 15 16 17 13 9 7 7 7 9
2 5 6 4 1 3 1 8 11 10 6 3 2 1 1 3 7 9 4 1 4 10 14 15 14 14 13 12 11 11 11 12 12 11 11 10 10 10 9 10 11 12 13 14 14 15 17 20 20 19 18 17 17 18 19 20 21 18 14 12 12 12 9
1 3 3 2 1 1 1 5 7 6 5 5 4 2 2 3 3 0 1 2 8 13 15 16 15 13 12 11 10 9 9 10 11 12 11 11 11 11 10 10 12 14 16 17 17 18 20 22 22 24 24 25 24 24 23 23 23 22 21 19 18 15 13
0 2 1 2 0 2 1 2 5 3 2 3 3 1 3 2 1 2 1 6 11 14 14 14 14 12 11 9 8 8 9 9 10 11 11 11 12 11 9 9 11 15 17 17 17 21 24 24 24 26 28 29 28 25 24 25 25 23 22 22 20 18 17
1 2 2 3 1 2 1 1 5 5 2 4 3 1 2 2 3 1 4 7 11 14 15 14 13 12 11 9 6 6 8 8 9 10 11 12 12 12 11 10 11 14 17 17 17 20 24 26 26 28 30 31 29 27 26 26 26 24 23 22 21 20 19
0 2 2 1 1 1 2 2 4 4 3 5 4 2 1 1 2 3 6 10 13 15 15 15 14 13 11 8 5 5 6 7 7 10 12 13 14 15 15 14 15 16 16 19 20 22 24 26 26 28 30 31 31 29 27 26 26 26 24 21 20 20 20
1 1 2 2 3 2 1 1 1 2 2 4 4 3 0 1 2 5 10 13 15 16 16 16 16 14 11 7 5 4 6 7 8 10 13 14 15 15 15 16 17 17 17 20 24 26 26 26 26 27 28 28 29 27 24 24 25 25 22 20 19 20 20
0 2 2 2 2 2 3 5 5 4 3 2 2 3 0 3 1 6 12 14 15 16 16 17 16 13 10 8 6 6 7 8 9 10 12 13 14 14 15 15 16 18 21 24 25 26 26 25 25 25 25 26 27 26 23 22 23 22 21 20 20 20 19
1 2 2 1 1 3 4 8 11 9 2 3 2 3 2 5 3 6 11 14 15 15 15 17 14 9 7 9 9 9 10 9 9 10 11 12 13 14 15 16 17 20 23 23 21 22 24 23 22 22 22 23 25 24 22 22 21 20 20 20 19 18 18
1 1 2 1 2 2 5 10 12 9 2 3 1 2 3 5 6 5 10 13 14 14 14 14 9 3 5 10 12 13 14 12 11 12 12 13 14 14 15 16 18 19 21 21 20 20 21 21 20 19 19 20 20 19 19 18 17 16 17 17 16 16 16
1 0 1 1 2 3 7 12 10 6 2 2 2 4 3 5 6 5 8 11 12 11 10 7 5 5 9 12 12 12 13 12 12 12 13 13 14 15 15 17 17 18 18 18 19 18 18 17 17 15 17 18 17 16 16 15 13 13 14 14 14 14 14
0 1 1 1 2 3 10 12 6 2 3 2 3 6 5 3 4 5 5 7 9 9 9 9 9 10 10 11 12 11 11 12 14 14 13 12 13 15 15 16 16 17 17 15 15 14 13 14 14 13 15 16 15 15 15 14 12 12 12 11 11 12 13
1 1 2 2 2 4 9 8 3 3 5 4 4 5 5 3 2 3 3 3 4 7 9 11 13 13 12 11 12 11 10 11 13 14 13 12 12 13 14 14 16 18 17 15 14 13 13 13 13 12 13 15 15 14 14 13 12 12 11 10 10 10 11
1 2 2 2 2 3 5 4 2 5 6 5 5 4 4 3 2 1 2 3 4 6 9 12 14 14 14 15 14 13 12 12 13 16 17 14 12 13 13 14 15 17 17 16 15 14 13 13 13 12 12 13 14 14 13 12 11 10 10 10 11 10 10
1 2 2 2 2 4 5 4 2 4 6 6 5 4 2 3 3 1 0 3 6 6 6 9 10 10 13 16 16 15 14 14 15 18 20 18 15 14 14 14 15 16 16 16 15 14 13 13 12 12 11 11 13 13 11 10 9 8 9 10 11 10 10
2 1 3 3 4 6 7 5 4 6 8 7 6 5 4 4 3 2 3 4 5 5 6 6 5 4 5 8 11 12 13 14 15 17 18 18 17 17 17 17 18 16 14 14 13 13 13 12 11 10 10 9 10 10 9 8 7 7 7 8 9 9 8
0 1 2 1 2 5 8 7 6 6 8 8 9 8 6 6 6 6 7 6 6 8 8 9 9 9 8 7 6 5 4 7 11 13 14 16 18 19 20 20 18 15 13 12 12 12 12 12 11 10 10 9 8 7 7 6 6 7 8 8 8 7 6
2 2 2 2 1 3 8 9 8 6 6 8 10 10 10 10 9 8 9 9 8 8 8 9 10 9 6 6 7 6 5 5 6 7 8 11 14 18 21 21 19 16 15 13 12 12 12 12 12 12 11 10 9 8 8 7 7 8 9 8 7 6 6
2 2 2 1 1 2 5 7 6 5 6 9 11 12 12 11 10 8 8 8 8 6 5 6 9 8 6 8 9 8 8 10 11 10 11 12 14 17 19 19 19 18 18 16 15 15 15 14 13 13 13 12 11 10 10 9 9 9 9 8 7 6 5
2 3 2 1 1 3 3 2 3 4 5 7 10 10 10 10 10 9 8 7 6 5 4 2 4 5 6 10 12 10 10 14 16 18 19 19 21 22 20 17 16 17 17 17 17 18 17 15 14 14 13 13 12 11 10 10 9 9 8 7 6 6 5
3 2 2 1 1 3 2 1 2 3 5 5 5 6 6 7 8 9 9 8 6 6 5 3 2 2 4 8 10 10 11 15 19 22 21 20 22 25 24 21 19 18 18 16 16 18 17 15 13 14 13 13 12 11 10 9 8 8 7 7 7 6 6
2 2 2 2 1 1 0 2 1 2 4 4 3 4 4 4 5 7 8 7 7 7 6 5 4 4 5 6 6 7 9 13 17 18 16 15 17 21 23 23 22 21 19 17 17 18 18 16 14 14 14 13 12 11 10 8 8 7 7 7 6 6 6
Wind_Direction
196 178 160 167 178 170 155 189 198 168 140 171 146 103 110 140 180 165 191 222 274 255 251 265 219 196 184 167 155 153 153 155 162 169 172 177 181 179 181 187 187 186 185 187 191 191 188 186 187 191 195 198 200 201 204 205 206 209 211 212 213 214 217
208 171 157 170 187 153 155 196 176 113 59 6 268 191 146 203 220 160 201 232 235 221 230 178 173 178 178 174 167 161 158 157 162 165 163 164 169 173 181 186 185 183 184 187 191 193 193 191 191 195 197 198 200 203 205 204 206 209 211 212 213 215 218
132 136 164 172 199 216 188 178 158 145 202 194 176 208 188 197 217 169 189 238 241 221 210 179 179 178 178 178 173 171 167 164 166 166 158 154 154 159 173 180 182 185 189 191 192 193 195 193 193 195 195 194 197 203 206 206 208 211 211 211 214 218 220
119 152 182 184 185 209 7 151 171 189 265 198 175 197 213 200 200 188 175 219 230 219 191 180 183 179 178 178 178 179 176 169 165 162 158 154 150 147 156 165 171 183 192 195 196 196 196 196 195 195 193 192 195 201 205 205 205 208 209 212 216 220 221
161 170 194 198 180 176 186 184 185 182 146 189 174 126 305 227 185 176 193 223 210 134 80 187 185 179 180 182 182 182 179 173 161 151 151 149 146 144 144 152 164 174 184 192 197 198 195 194 195 196 196 194 193 197 203 205 204 205 208 212 217 220 221
183 164 163 226 197 181 190 196 190 184 170 165 183 182 157 310 196 152 201 248 141 104 93 208 186 182 184 183 184 183 180 176 165 149 142 142 149 152 152 158 163 167 175 185 192 193 190 189 193 197 198 193 190 194 201 205 204 206 210 212 215 218 219
198 157 55 259 254 177 179 205 191 185 183 187 202 200 161 145 137 93 157 277 56 104 124 182 181 181 180 179 182 183 178 172 168 162 153 151 163 170 167 165 156 153 162 173 181 183 185 188 193 198 199 195 192 198 205 207 207 211 214 214 215 218 220
64 76 114 111 34 162 183 219 180 186 197 198 207 190 159 179 179 145 199 235 139 119 132 156 159 156 163 173 176 178 173 163 160 163 161 162 173 179 176 162 147 148 155 161 170 175 178 186 194 200 202 200 199 203 208 209 209 214 217 217 218 220 221
135 136 143 140 137 175 188 148 143 192 141 119 113 92 148 198 183 144 223 232 124 122 148 160 159 155 160 166 165 167 166 159 160 161 158 161 169 171 164 156 156 160 160 159 163 170 176 183 192 199 202 201 201 204 209 211 211 215 218 217 218 220 223
167 164 155 150 152 182 345 102 138 187 148 140 136 123 175 205 161 140 233 240 112 140 165 173 175 170 161 153 154 157 149 146 150 149 148 151 159 164 162 162 165 165 167 165 166 176 182 182 185 192 196 196 195 198 205 210 209 209 213 216 216 216 220
84 130 49 18 313 288 303 120 137 171 181 152 135 154 189 177 146 175 224 139 148 173 179 180 183 177 161 151 152 151 142 139 140 136 133 130 137 153 155 155 156 160 170 170 171 179 179 172 169 172 176 177 179 187 194 197 192 186 194 202 200 200 208
47 351 323 310 301 2 356 11 129 153 181 193 187 195 174 138 155 204 182 155 174 183 182 185 185 174 159 154 156 151 144 143 140 136 132 131 134 136 132 147 164 166 169 169 171 173 166 157 153 153 157 159 161 168 170 165 159 155 173 189 191 189 193
55 23 17 51 95 81 41 30 41 60 4 259 220 208 154 151 192 243 163 171 189 182 177 183 179 166 157 153 155 149 142 142 141 144 146 144 140 130 125 144 166 169 171 169 169 167 154 144 141 143 149 148 141 137 127 126 131 130 157 192 203 203 198
41 35 41 61 80 83 66 49 37 34 23 354 29 80 123 113 3 356 159 172 185 171 172 176 169 161 154 149 150 146 141 141 142 149 156 152 142 133 131 136 141 153 164 165 165 164 151 140 135 133 134 133 125 118 110 117 129 139 175 201 207 204 202
36 21 28 51 66 82 71 52 30 23 28 45 64 96 128 83 54 101 145 160 166 162 168 169 163 160 156 154 157 152 146 145 144 149 153 146 138 133 132 130 125 125 130 131 135 136 132 129 125 118 117 115 110 105 101 112 132 159 199 209 199 194 205
52 5 2 25 38 164 65 36 13 0 357 2 63 71 219 169 132 130 140 169 179 166 168 167 162 164 163 162 163 160 153 150 149 149 144 133 130 133 133 129 122 115 108 103 104 107 110 112 110 108 109 104 97 95 97 108 126 146 171 172 147 151 183
66 354 345 10 359 215 75 20 352 332 326 317 301 294 247 179 151 142 156 223 146 155 169 171 168 169 169 167 167 165 160 154 149 147 139 127 124 128 126 119 114 108 101 95 90 90 96 100 103 106 106 98 91 93 98 106 116 122 121 115 112 115 129
56 357 340 345 359 160 86 12 340 310 300 314 312 304 132 148 156 149 328 114 139 159 172 172 169 169 168 167 165 158 155 151 147 142 133 122 120 119 112 107 107 103 98 93 86 85 90 95 100 104 102 98 96 98 102 103 105 107 107 106 106 106 110
14 22 341 234 198 63 93 13 4 357 294 318 339 76 112 97 354 312 202 156 157 165 167 164 164 164 157 151 145 144 144 140 139 136 127 120 120 115 105 102 104 103 102 100 96 96 98 99 101 102 101 101 101 100 101 101 100 100 100 98 97 97 101
211 128 154 203 173 60 114 98 29 23 358 348 360 115 126 19 325 261 164 158 160 160 159 159 160 154 136 110 99 129 140 134 135 136 130 127 126 121 118 112 105 105 108 109 107 106 105 104 104 103 103 105 104 100 100 100 99 99 97 93 93 95 97
95 126 122 167 181 86 85 57 24 14 343 332 326 285 158 33 271 203 154 154 159 158 157 156 153 146 133 114 100 120 129 125 125 124 124 127 126 123 122 118 112 111 115 117 117 114 111 109 107 105 106 107 106 103 102 100 98 97 95 92 92 92 91
26 133 129 156 177 142 73 336 359 20 302 286 276 258 231 57 231 186 157 156 163 162 157 154 151 147 142 139 138 131 127 124 115 108 111 117 118 117 117 119 118 117 116 117 118 117 114 111 109 108 108 108 105 102 99 98 96 93 91 89 89 87 85
132 211 184 173 164 108 18 322 324 340 317 239 218 231 16 31 287 183 161 160 167 166 161 158 157 157 156 158 159 146 134 127 118 112 109 109 112 111 112 116 118 117 117 117 116 114 111 108 108 108 108 106 103 98 94 95 93 89 89 91 92 90 87
139 218 212 153 98 71 3 323 321 328 348 140 198 251 25 17 309 194 167 166 167 163 163 165 168 173 169 162 154 139 128 119 110 111 113 114 116 114 113 114 114 116 118 116 110 109 109 108 109 109 107 103 100 96 94 91 87 86 89 93 95 95 92
74 222 203 128 88 59 348 322 317 315 279 172 217 331 13 343 301 219 179 174 167 161 166 172 173 164 134 140 143 140 137 131 119 115 118 118 117 115 115 116 115 114 114 111 106 105 108 110 110 109 107 102 96 92 91 86 81 85 92 95 96 97 95
45 98 168 106 127 80 346 319 307 303 267 198 13 344 309 296 294 253 195 179 168 161 157 148 119 92 108 126 136 139 136 130 122 122 124 121 117 115 114 114 113 110 106 104 102 102 106 110 110 109 109 104 96 92 89 84 85 91 94 95 96 95 94
357 106 81 74 133 53 353 330 316 360 2 339 335 322 300 280 287 263 208 178 170 160 139 115 110 118 125 132 139 139 135 129 126 128 130 125 119 117 115 115 115 111 104 98 97 99 106 112 111 112 113 108 101 97 94 92 96 98 96 98 100 98 97
320 38 66 52 13 353 349 347 1 15 346 315 298 303 302 309 306 260 209 168 152 150 141 134 136 143 148 150 148 141 131 125 123 123 121 118 118 120 118 117 118 115 110 104 101 102 108 115 116 116 114 111 106 103 101 102 101 98 97 101 102 101 102
21 16 30 38 6 338 350 9 358 332 332 324 303 290 283 302 333 269 204 161 142 150 150 144 147 155 160 160 156 147 136 134 136 135 133 131 129 125 122 122 123 120 116 114 110 106 107 112 115 113 113 111 108 107 109 108 103 99 98 99 98 98 99
122 43 23 17 10 5 11 25 13 343 351 352 338 328 321 327 337 330 215 151 152 154 143 137 147 164 166 161 158 152 146 148 150 144 141 141 138 130 127 129 129 126 122 120 117 113 111 112 112 112 113 112 108 108 111 108 102 99 97 95 94 92 90
176 87 59 41 27 22 16 23 42 27 18 17 13 12 14 360 355 36 71 97 121 113 96 104 116 119 133 147 153 154 151 151 151 147 143 143 141 136 137 140 139 136 131 127 125 123 120 118 116 115 118 118 115 116 117 109 103 101 98 95 91 85 81
82 77 95 88 22 30 29 33 44 33 23 28 29 29 34 30 29 58 75 74 80 82 76 77 76 62 46 52 76 95 112 122 131 139 143 143 141 140 143 147 150 146 140 136 136 133 127 124 123 122 122 125 129 135 134 127 123 118 111 103 93 82 76
108 101 114 185 221 53 43 41 46 44 38 43 37 31 38 42 39 51 68 71 79 94 99 98 94 80 60 66 80 74 57 61 80 110 135 139 139 142 148 155 159 157 150 146 143 138 135 134 133 131 130 131 134 140 143 142 138 130 121 112 101 91 84
119 67 43 313 241 82 53 37 35 37 46 59 56 43 39 41 39 45 63 71 75 80 92 129 143 144 152 158 150 145 155 157 153 156 161 154 146 147 153 159 163 164 162 159 156 151 149 149 145 140 138 138 137 136 139 141 138 130 123 117 110 105 100
72 47 61 79 50 77 73 24 13 14 21 51 69 66 57 51 45 46 58 71 84 80 65 95 157 166 169 168 164 160 161 162 164 171 174 168 159 157 160 166 169 166 163 165 165 162 161 159 154 148 145 143 142 140 139 140 138 133 130 128 125 123 120
88 79 120 149 66 72 77 324 344 2 360 19 55 70 72 73 66 60 57 57 73 94 99 100 120 155 175 174 173 171 168 168 174 179 180 174 167 164 168 176 179 172 168 170 172 169 168 165 159 152 149 147 147 145 143 141 139 138 140 140 136 135 135
108 107 136 160 108 70 334 285 310 346 351 1 16 25 37 60 74 77 76 69 65 71 81 89 100 137 171 178 179 177 177 180 184 184 179 174 171 170 173 181 183 178 176 178 177 174 173 171 163 156 153 153 153 149 144 141 138 137 141 144 142 142 144